FW4111 Weather Reports


time (UTC)temp
F
wind
direction
speed
knots
gust
knots
rain 1hr
in
rain 24hr
in
rain mn
in
humidity
%
barometer
mb
20260504194540 60 242 10.4 20.0 0.00 0.00 0.00 81 1010.4
20260504193043 61 219 11.3 20.9 0.00 0.00 0.00 79 1010.5
20260504191532 61 236 8.7 20.9 0.00 0.00 0.00 80 1010.7
20260504190012 61 128 9.6 22.6 0.00 0.00 0.00 82 1011.0
20260504184507 61 250 10.4 17.4 0.00 0.00 0.00 80 1011.0
20260504183003 60 183 11.3 20.9 0.00 0.00 0.00 83 1011.2
20260504181604 60 241 9.6 20.0 0.00 0.00 0.00 81 1011.3
20260504180141 60 241 10.4 19.1 0.00 0.00 0.00 80 1011.4
20260504174540 61 189 9.6 20.9 0.00 0.00 0.00 81 1011.6
20260504173039 61 231 8.7 19.1 0.00 0.00 0.00 78 1011.7
20260504171536 61 249 10.4 20.0 0.00 0.00 0.00 79 1012.1
20260504160107 61 174 9.6 17.4 0.00 0.00 0.00 76 1012.7
20260504140111 59 219 7.8 18.2 0.00 0.00 0.00 75 1013.5
20260504120121 54 239 13.0 17.4 0.00 0.00 0.00 79 1014.7
20260504090115 51 233 17.4 23.5 0.00 0.00 0.00 77 1014.5
20260504081547 52 243 15.6 22.6 0.00 0.00 0.00 73 1014.6
20260504070122 52 229 9.6 13.9 0.00 0.00 0.00 68 1014.0
20260504050118 52 254 10.4 15.6 0.00 0.00 0.00 63 1013.7
20260504044543 52 274 8.7 14.8 0.00 0.00 0.00 68 1013.7
20260504043046 52 247 11.3 15.6 0.00 0.00 0.00 66 1013.6
20260504041539 52 255 11.3 14.8 0.00 0.00 0.00 64 1013.3
20260504040037 52 240 12.2 15.6 0.00 0.00 0.00 62 1013.1
20260504034517 53 234 8.7 13.0 0.00 0.00 0.00 64 1013.0
20260504033013 53 249 8.7 15.6 0.00 0.00 0.00 65 1013.0
20260504031514 53 255 9.6 14.8 0.00 0.00 0.00 62 1013.0
20260504030111 53 250 11.3 15.6 0.00 0.00 0.00 63 1012.9
20260504024557 53 259 10.4 13.9 0.00 0.00 0.00 63 1013.0
20260504023049 53 252 8.7 13.0 0.00 0.00 0.00 64 1013.0
20260504021547 54 251 9.6 13.9 0.00 0.00 0.00 62 1013.1
20260504020034 54 236 8.7 13.0 0.00 0.00 0.00 62 1013.0
20260504014534 54 251 7.8 13.9 0.00 0.00 0.00 63 1013.0
20260504013025 55 236 7.8 12.2 0.00 0.00 0.00 63 1012.9
20260504011522 55 247 7.8 12.2 0.00 0.00 0.00 60 1012.6
20260504010004 55 256 10.4 13.9 0.00 0.00 0.00 59 1012.4
20260504004502 55 260 8.7 12.2 0.00 0.00 0.00 55 1012.3
20260504003102 56 257 7.8 10.4 0.00 0.00 0.00 56 1012.1
20260504001602 56 240 7.8 11.3 0.00 0.00 0.00 56 1012.0
20260504000101 57 271 5.2 9.6 0.00 0.00 0.00 55 1011.8
20260503234538 58 255 4.3 8.7 0.00 0.00 0.00 52 1011.7
20260503233038 58 258 3.5 9.6 0.00 0.00 0.00 49 1011.5
20260503231536 59 286 4.3 13.9 0.00 0.00 0.00 46 1011.6
20260503230017 59 278 7.0 15.6 0.00 0.00 0.00 47 1011.5
20260503224512 59 276 10.4 16.5 0.00 0.00 0.00 47 1011.5
20260503223010 59 347 10.4 17.4 0.00 0.00 0.00 43 1011.2
20260503221506 59 295 8.7 20.9 0.00 0.00 0.00 50 1011.3
20260503220108 59 278 8.7 20.9 0.00 0.00 0.00 47 1011.2
20260503214549 58 270 11.3 20.9 0.00 0.00 0.00 45 1011.1
20260503213045 58 274 11.3 24.3 0.00 0.00 0.00 49 1011.1
20260503211558 58 319 9.6 19.1 0.00 0.00 0.00 45 1011.0
20260503210022 58 334 9.6 19.1 0.00 0.00 0.00 48 1010.9
20260503204520 58 285 11.3 21.7 0.00 0.00 0.00 46 1010.8
20260503203019 57 304 11.3 20.9 0.00 0.00 0.00 45 1010.8
20260503201517 57 293 11.3 19.1 0.00 0.00 0.00 47 1010.8
20260503200119 56 283 11.3 21.7 0.00 0.00 0.00 46 1010.9